Date String (YYYY-MM-DD hh:mm:ss) UTC,Instrument flags,Ambient pressure (hPa),Sample flow (lpm),Bypass flow (lpm),Sample temperature (°C),Ambient temperature (°C),ASC tube jacket temperature (°C),LED temperature (°C),Box temperature (°C),Sample RH (%),Span deviation,Mass concentration (μg/m³),Mass concentration (μg/m³),Mass concentration (μg/m³)
DateTimeUTC,F1_M11,P_M11,Q1_M11,Q2_M11,T1_M11,T2_M11,T3_M11,T4_M11,T5_M11,U1_M11,ZSPAN_M11,X0_M11,X2_M11,X1_M11
2022-09-23 12:00:00,,0825.2,4.99,0.00,29.4,28.0,00.0,38.1,31.3,22.7,-002.4,0008.62,0005.34,0004.91
2022-09-23 12:01:00,,0825.2,5.01,0.00,29.4,28.0,00.0,38.1,31.3,23.0,-001.9,0008.64,0005.44,0005.01
2022-09-23 12:02:00,,0825.1,4.99,0.00,29.4,28.0,00.0,38.1,31.3,23.1,-001.9,0008.75,0005.58,0005.14
2022-09-23 12:03:00,,0825.2,5.01,0.00,29.4,28.0,00.0,38.1,31.3,23.3,-001.4,0008.89,0005.69,0005.24
2022-09-23 12:04:00,,0825.2,5.01,0.00,29.5,28.0,00.0,38.1,31.3,23.6,-001.2,0008.78,0005.77,0005.33
2022-09-23 12:05:00,,0825.2,4.99,0.00,29.5,28.0,00.0,38.1,31.3,23.9,-001.3,0008.82,0005.88,0005.45
2022-09-23 12:06:00,,0825.1,5.01,0.00,29.5,28.0,00.0,38.2,31.3,24.0,-001.9,0008.98,0006.04,0005.63
2022-09-23 12:07:00,,0825.1,4.99,0.00,29.5,28.0,00.0,38.2,31.3,23.7,-001.7,0009.26,0006.21,0005.79
2022-09-23 12:08:00,,0825.2,5.00,0.00,29.5,28.0,00.0,38.2,31.3,23.9,-001.9,0009.42,0006.40,0005.98
2022-09-23 12:09:00,,0825.2,5.00,0.00,29.5,28.0,00.0,38.2,31.3,23.9,-001.9,0009.56,0006.57,0006.16
2022-09-23 12:10:00,,0825.1,5.00,0.00,29.5,28.0,00.0,38.2,31.3,24.2,-002.0,0009.69,0006.81,0006.41
2022-09-23 12:11:00,,0825.1,5.00,0.00,29.5,27.9,00.0,38.2,31.3,24.4,-002.1,0009.92,0007.08,0006.69
2022-09-23 12:12:00,,0825.2,5.00,0.00,29.4,27.9,00.0,38.2,31.3,24.1,-002.1,0010.06,0007.24,0006.84
2022-09-23 12:13:00,,0825.2,5.00,0.00,29.4,27.9,00.0,38.2,31.3,24.0,-001.9,0010.10,0007.33,0006.95
2022-09-23 12:14:00,,0825.2,4.99,0.00,29.4,27.9,00.0,38.2,31.3,24.1,-002.0,0010.00,0007.37,0007.03
2022-09-23 12:15:00,,0825.2,5.01,0.00,29.5,27.9,00.0,38.2,31.3,23.4,-002.1,0010.02,0007.40,0007.07
2022-09-23 12:16:00,,0825.1,4.99,0.00,29.5,27.9,00.0,38.2,31.3,23.4,-002.0,0010.73,0007.30,0006.97
2022-09-23 12:17:00,,0825.0,5.00,0.00,29.5,27.9,00.0,38.2,31.3,23.3,-001.7,0010.70,0007.21,0006.88
2022-09-23 12:18:00,,0825.1,5.00,0.00,29.5,27.9,00.0,38.2,31.3,23.1,-001.6,0010.51,0007.11,0006.79
2022-09-23 12:19:00,,0825.1,5.00,0.00,29.5,28.0,00.0,38.2,31.3,22.5,-001.3,0010.30,0006.94,0006.63
2022-09-23 12:20:00,,0825.1,4.99,0.00,29.5,28.0,00.0,38.2,31.3,21.5,-001.4,0010.08,0006.68,0006.36
2022-09-23 12:21:00,,0825.2,4.99,0.00,29.5,28.0,00.0,38.2,31.3,20.6,-001.4,0009.78,0006.33,0006.00
2022-09-23 12:22:00,,0825.2,5.01,0.00,29.5,28.0,00.0,38.2,31.3,19.6,-001.1,0009.36,0005.89,0005.58
2022-09-23 12:23:00,,0825.2,5.00,0.00,29.5,28.0,00.0,38.2,31.3,19.9,-001.2,0009.02,0005.60,0005.30
2022-09-23 12:24:00,,0825.2,4.99,0.00,29.5,28.0,00.0,38.2,31.3,20.4,-001.5,0008.83,0005.34,0005.03
2022-09-23 12:25:00,,0825.1,5.01,0.00,29.5,28.0,00.0,38.2,31.3,20.3,-001.9,0008.60,0005.09,0004.76
2022-09-23 12:26:00,,0825.1,4.99,0.00,29.5,28.0,00.0,38.2,31.3,19.8,-001.6,0008.32,0004.80,0004.46
2022-09-23 12:27:00,,0825.2,5.01,0.00,29.5,28.0,00.0,38.2,31.3,19.3,-000.6,0007.38,0004.61,0004.26
2022-09-23 12:28:00,,0825.2,4.99,0.00,29.5,28.0,00.0,38.2,31.3,19.7,0000.0,0006.92,0004.38,0004.02
2022-09-23 12:29:00,,0825.2,5.01,0.00,29.5,28.0,00.0,38.2,31.4,22.1,-000.1,0006.88,0004.37,0004.01
2022-09-23 12:30:00,,0825.2,4.99,0.00,29.5,28.0,00.0,38.2,31.3,23.4,0000.1,0007.21,0004.56,0004.19
2022-09-23 12:31:00,,0825.2,5.01,0.00,29.5,28.0,00.0,38.2,31.3,23.0,0000.1,0007.47,0004.75,0004.40
2022-09-23 12:32:00,,0825.2,5.00,0.00,29.5,28.0,00.0,38.2,31.3,21.8,-000.0,0007.59,0004.88,0004.52
2022-09-23 12:33:00,,0825.2,5.00,0.00,29.5,28.0,00.0,38.2,31.4,22.7,-001.0,0007.87,0005.09,0004.71
2022-09-23 12:34:00,,0825.1,4.99,0.00,29.5,28.0,00.0,38.2,31.4,21.8,-001.5,0008.44,0005.27,0004.89
2022-09-23 12:35:00,,0825.1,5.01,0.00,29.5,28.0,00.0,38.2,31.3,19.2,-001.1,0009.50,0005.24,0004.86
2022-09-23 12:36:00,,0825.1,4.99,0.00,29.5,28.0,00.0,38.2,31.3,18.1,-000.6,0009.63,0005.14,0004.78
2022-09-23 12:37:00,,0825.1,5.01,0.00,29.5,28.0,00.0,38.2,31.4,19.4,-000.8,0009.66,0005.13,0004.77
2022-09-23 12:38:00,,0825.1,4.99,0.00,29.5,28.0,00.0,38.2,31.3,21.8,-001.0,0009.85,0005.34,0004.95
2022-09-23 12:39:00,,0825.1,4.99,0.00,29.5,28.0,00.0,38.2,31.3,20.8,-001.4,0009.94,0005.46,0005.07
2022-09-23 12:40:00,,0825.1,4.99,0.00,29.5,28.0,00.0,38.2,31.4,19.3,-001.6,0009.81,0005.29,0004.92
2022-09-23 12:41:00,,0825.1,5.01,0.00,29.5,28.0,00.0,38.2,31.4,19.0,-002.4,0009.45,0004.94,0004.58
2022-09-23 12:42:00,,0825.0,4.99,0.00,29.5,28.0,00.0,38.2,31.4,19.4,-001.8,0009.10,0004.64,0004.29
2022-09-23 12:43:00,,0824.9,5.01,0.00,29.5,28.0,00.0,38.2,31.4,22.2,-002.5,0009.05,0004.65,0004.31
2022-09-23 12:44:00,,0825.1,4.99,0.00,29.5,28.0,00.0,38.2,31.4,22.4,-001.8,0008.93,0004.64,0004.34
2022-09-23 12:45:00,,0825.1,5.01,0.00,29.5,28.0,00.0,38.2,31.4,22.5,-000.5,0008.60,0004.65,0004.36
2022-09-23 12:46:00,,0825.1,4.99,0.00,29.5,28.0,00.0,38.2,31.4,22.8,-002.1,0007.67,0004.90,0004.60
2022-09-23 12:47:00,,0825.1,5.01,0.00,29.5,28.0,00.0,38.2,31.3,21.8,-002.6,0007.77,0005.15,0004.84
2022-09-23 12:48:00,,0825.2,5.00,0.00,29.5,28.0,00.0,38.2,31.4,20.7,-002.7,0008.03,0005.25,0004.93
2022-09-23 12:49:00,,0825.0,5.01,0.00,29.5,28.0,00.0,38.3,31.4,19.8,-002.5,0007.88,0005.09,0004.81
2022-09-23 12:50:00,,0824.9,5.00,0.00,29.5,28.0,00.0,38.2,31.4,17.2,0000.0,0007.72,0004.93,0004.63
2022-09-23 12:51:00,,0825.1,5.00,0.00,29.5,28.0,00.0,38.2,31.4,16.3,0000.0,0007.63,0004.88,0004.56
2022-09-23 12:52:00,,0825.2,5.01,0.00,29.5,28.0,00.0,38.2,31.4,17.4,0000.0,0007.67,0004.86,0004.52
2022-09-23 12:53:00,,0825.1,4.99,0.00,29.5,28.0,00.0,38.2,31.4,19.2,0000.0,0007.76,0004.90,0004.54
2022-09-23 12:54:00,,0825.1,5.00,0.00,29.5,28.0,00.0,38.2,31.4,20.5,0000.0,0007.69,0004.80,0004.45
2022-09-23 12:55:00,,0825.1,5.00,0.00,29.5,27.9,00.0,38.2,31.3,20.8,0000.0,0007.70,0004.72,0004.37
2022-09-23 12:56:00,,0825.2,5.01,0.00,29.5,27.9,00.0,38.3,31.3,18.7,0000.0,0007.66,0004.56,0004.20
2022-09-23 12:57:00,,0825.3,5.00,0.00,29.5,27.9,00.0,38.3,31.3,20.8,0000.0,0007.54,0004.39,0004.03
2022-09-23 12:58:00,,0825.2,5.01,0.00,29.5,27.9,00.0,38.3,31.3,19.9,0000.0,0007.35,0004.25,0003.90
2022-09-23 12:59:00,,0825.2,4.99,0.00,29.5,27.9,00.0,38.2,31.3,18.4,0000.0,0006.89,0004.13,0003.78
